Location: Hamayl? Da??
(36.7028°N, 30.1716°E)
Time: 14:04:57
(UTC+00:00)

Vanguard 1 - Visible Passes

Search period start: 15 December 2025 00:00
Search period end: 25 December 2025 00:00
Orbit: 651 x 3820 km, 34.2° (Epoch: 14 December)

Date Brightness Start Highest point End Pass type
(mag) Time Alt. Az. Time Alt. Az. Time Alt. Az.
15 Dec 14.6 15:12:58 10° WSW 15:22:25 18° SW 15:34:28 10° S visible
16 Dec 14.8 15:36:17 10° WSW 15:42:09 12° SW 15:48:51 10° SSW visible
18 Dec 12.1 04:31:39 10° S 04:34:00 14° SSE 04:36:25 10° ESE visible
22 Dec 11.9 03:28:21 10° S 03:31:14 15° SSE 03:33:52 10° ESE visible
23 Dec 11.4 03:46:34 10° SSW 03:50:28 22° SSE 03:53:57 10° ESE visible
24 Dec 10.9 04:05:18 10° SW 04:09:41 31° SSE 04:13:37 10° E visible
